Hourly Data Report for October 21, 2017

All times are specified in Local Standard Time (LST). Add 1 hour to adjust for Daylight Saving Time where and when it is observed.

VICTORIA HARBOUR A
BRITISH COLUMBIA

48°25'22.000" N
123°23'15.000" W
     
1018633
YWH

Related Data

No related data is available for this station

Download Data

Hourly Data (October 2017)
Hourly Data Report for October 21, 2017
Temp Definition
°C
Dew Point Temp Definition
°C
Rel Hum Definition
%
Wind Dir Definition
10's deg

Wind Spd Definition
km/h
Visibility Definition
km
Stn Press Definition
kPa
Hmdx Definition


Wind Chill Definition


Weather Definition


TIME
00:00 Legend Double Dagger 8.6 6.0 83 11 17 LegendMM 101.16     LegendNANA
01:00 Legend Double Dagger 8.7 6.5 86 9 13 LegendMM 101.08     LegendNANA
02:00 Legend Double Dagger 8.7 6.1 84 10 9 LegendMM 101.04     LegendNANA
03:00 Legend Double Dagger 8.7 6.2 84 8 7 LegendMM 100.96     LegendNANA
04:00 Legend Double Dagger 8.7 6.8 88 10 20 LegendMM 100.85     LegendNANA
05:00 Legend Double Dagger 9.0 6.9 87 10 20 LegendMM 100.69     LegendNANA
06:00 Legend Double Dagger 9.2 6.6 83 11 32 LegendMM 100.58     LegendNANA
07:00 Legend Double Dagger 9.2 5.9 80 11 31 LegendMM 100.50     LegendNANA
08:00 Legend Double Dagger 9.2 6.3 82 11 35 LegendMM 100.48     LegendNANA
09:00 Legend Double Dagger 9.2 6.5 83 12 28 LegendMM 100.45     LegendNANA
10:00 Legend Double Dagger 9.1 7.0 86 13 32 LegendMM 100.46     LegendNANA
11:00 Legend Double Dagger 9.5 7.2 85 12 27 LegendMM 100.46     LegendNANA
12:00 Legend Double Dagger 9.6 7.5 87 13 18 LegendMM 100.44     LegendNANA
13:00 Legend Double Dagger 9.5 7.9 90 13 20 LegendMM 100.42     LegendNANA
14:00 Legend Double Dagger 9.5 8.1 91 12 22 LegendMM 100.35     LegendNANA
15:00 Legend Double Dagger 9.7 8.5 92 11 28 LegendMM 100.14     LegendNANA
16:00 Legend Double Dagger 9.9 8.7 92 10 31 LegendMM 100.03     LegendNANA
17:00 Legend Double Dagger 9.9 8.8 93 12 19 LegendMM 99.96     LegendNANA
18:00 Legend Double Dagger 9.7 8.9 94 16 9 LegendMM 100.01     LegendNANA
19:00 Legend Double Dagger 9.5 8.9 96 17 8 LegendMM 100.04     LegendNANA
20:00 Legend Double Dagger 9.4 8.9 97 15 11 LegendMM 100.10     LegendNANA
21:00 Legend Double Dagger 11.9 10.5 91 24 26 LegendMM 100.11     LegendNANA
22:00 Legend Double Dagger 13.0 11.0 88 26 27 LegendMM 100.13     LegendNANA
23:00 Legend Double Dagger 12.1 10.7 91 21 20 LegendMM 100.19     LegendNANA

Notes on Data Quality.

Legend

  • E = Estimated
  • M = Missing
  • NA = Not Available
  • ‡ = Partner data that is not subject to review by the National Climate Archives
Date modified: